Terminal Aerodrome Forecast
Issued by NWS Green Bay, WI

Home | Current Version | Previous Version | Graphics & Text | Print | Product List | Glossary On
Versions: 1 2 3 4 5 6 7 8 9 10 11 12 13 14 15 16 17 18 19 20 21 22 23 24 25 26 27 28 29 30 31 32 33 34 35 36 37 38 39 40 41 42 43 44 45 46
000
FTUS43 KGRB 151352 AAB
TAFGRB
TAF AMD
KGRB 151352Z 1514/1612 31005KT P6SM SCT035
     FM151900 04005KT P6SM FEW040
     FM160100 10004KT P6SM SCT200
     FM161100 VRB03KT P6SM BKN150=

USA.gov is the U.S. government's official web portal to all federal, state and local government web resources and services.